N66141 KMEM-KMEM

Flight info

Callsign N66141
Flight time 0h 5m
Altitude VFR/013
Route
Aircraft

Departure

Time 2026-05-05 23:35
Airport Memphis International Airport (KMEM)

Arrival

Time 2026-05-05 23:40
Airport Memphis International Airport (KMEM)
Time Latitude Longitude Altitude Speed Heading
2026-05-05 23:23 35.05478 -89.98145 292 ft 0 kts 91°
2026-05-05 23:24 35.05478 -89.98140 292 ft 6 kts 75°
2026-05-05 23:25 35.05482 -89.98205 288 ft 19 kts 239°
2026-05-05 23:25 35.05475 -89.98311 283 ft 16 kts 297°
2026-05-05 23:25 35.05552 -89.98382 283 ft 16 kts 323°
2026-05-05 23:25 35.05571 -89.98443 282 ft 0 kts 262°
2026-05-05 23:26 35.05571 -89.98448 282 ft 0 kts 255°
2026-05-05 23:26 35.05529 -89.98510 280 ft 20 kts 183°
2026-05-05 23:27 35.05343 -89.98513 282 ft 30 kts 181°
2026-05-05 23:27 35.05127 -89.98516 289 ft 29 kts 187°
2026-05-05 23:27 35.04969 -89.98601 292 ft 10 kts 208°
2026-05-05 23:27 35.04939 -89.98636 295 ft 0 kts 242°
2026-05-05 23:28 35.04933 -89.98688 293 ft 18 kts 254°
2026-05-05 23:28 35.04757 -89.98740 291 ft 56 kts 180°
2026-05-05 23:28 35.04071 -89.98734 471 ft 135 kts 181°
2026-05-05 23:29 35.03039 -89.98697 614 ft 159 kts 178°
2026-05-05 23:29 35.02076 -89.98700 743 ft 105 kts 200°
2026-05-05 23:29 35.01723 -89.99415 838 ft 112 kts 271°
2026-05-05 23:29 35.02228 -90.00151 759 ft 135 kts 331°
2026-05-05 23:30 35.03229 -90.00330 709 ft 146 kts
2026-05-05 23:30 35.04165 -90.00180 672 ft 123 kts
2026-05-05 23:30 35.04961 -89.99949 599 ft 114 kts 17°
2026-05-05 23:30 35.05499 -89.99329 534 ft 117 kts 87°
2026-05-05 23:31 35.05118 -89.98800 368 ft 86 kts 174°
2026-05-05 23:31 35.04626 -89.98744 296 ft 59 kts 185°
2026-05-05 23:31 35.04163 -89.98771 382 ft 93 kts 182°
2026-05-05 23:31 35.03355 -89.98745 671 ft 127 kts 181°
2026-05-05 23:32 35.02438 -89.98733 897 ft 122 kts 176°
2026-05-05 23:32 35.01940 -89.99309 795 ft 119 kts 261°
2026-05-05 23:32 35.02246 -90.00187 669 ft 126 kts 320°
2026-05-05 23:32 35.03092 -90.00393 663 ft 119 kts
2026-05-05 23:33 35.03852 -90.00250 728 ft 116 kts 17°
2026-05-05 23:33 35.04631 -90.00056 701 ft 113 kts
2026-05-05 23:33 35.05356 -89.99829 622 ft 110 kts 39°
2026-05-05 23:33 35.05489 -89.99032 499 ft 92 kts 141°
2026-05-05 23:34 35.04921 -89.98753 320 ft 83 kts 180°
2026-05-05 23:34 35.04453 -89.98736 291 ft 72 kts 179°
2026-05-05 23:34 35.03737 -89.98746 614 ft 131 kts 184°
2026-05-05 23:34 35.02687 -89.98720 913 ft 175 kts 180°
2026-05-05 23:35 35.01802 -89.99198 1078 ft 127 kts 244°
2026-05-05 23:35 35.02016 -90.00201 849 ft 138 kts 320°
2026-05-05 23:35 35.02970 -90.00314 703 ft 139 kts
2026-05-05 23:35 35.04006 -90.00176 716 ft 136 kts 10°
2026-05-05 23:36 35.04923 -89.99940 665 ft 133 kts 11°
2026-05-05 23:36 35.05660 -89.99464 606 ft 110 kts 64°
2026-05-05 23:36 35.05457 -89.98831 460 ft 89 kts 178°
2026-05-05 23:36 35.04853 -89.98745 298 ft 78 kts 178°
2026-05-05 23:37 35.04320 -89.98731 318 ft 99 kts 181°
2026-05-05 23:37 35.03428 -89.98769 785 ft 144 kts 185°
2026-05-05 23:37 35.02447 -89.98830 920 ft 120 kts 191°
2026-05-05 23:37 35.01785 -89.99228 781 ft 112 kts 240°
2026-05-05 23:38 35.01830 -90.00268 660 ft 143 kts 316°
2026-05-05 23:38 35.02785 -90.00339 509 ft 135 kts
2026-05-05 23:38 35.03757 -90.00218 696 ft 145 kts
2026-05-05 23:38 35.04737 -90.00008 751 ft 140 kts
2026-05-05 23:39 35.05703 -89.99916 703 ft 136 kts
2026-05-05 23:39 35.06621 -89.99776 716 ft 131 kts 17°
2026-05-05 23:39 35.07116 -89.98961 754 ft 120 kts 110°
2026-05-05 23:39 35.06557 -89.98655 719 ft 84 kts 192°
2026-05-05 23:40 35.05943 -89.98752 560 ft 92 kts 182°
2026-05-05 23:40 35.05332 -89.98747 395 ft 86 kts 185°
2026-05-05 23:40 35.04765 -89.98741 293 ft 66 kts 184°
2026-05-05 23:40 35.04547 -89.98707 292 ft 13 kts 105°
2026-05-05 23:41 35.04630 -89.98641 292 ft 10 kts 37°
2026-05-05 23:41 35.04636 -89.98636 292 ft 0 kts 36°
2026-05-05 23:41 35.04653 -89.98622 291 ft 13 kts 29°
2026-05-05 23:41 35.04671 -89.98612 291 ft 7 kts 20°
2026-05-05 23:42 35.04815 -89.98608 296 ft 33 kts